Hourly Weather Bolshoy Chagan

Today, 2 August, Monday

Time Temperature Precipitation Wind Pressure Humidity
00:00 +28°C° 0 mm 3 mps 757 mmHg 43%
01:00 +28°C° 0 mm 3 mps 757 mmHg 43%
02:00 +27°C° 0 mm 2 mps 757 mmHg 43%
03:00 +27°C° 0 mm 2 mps 757 mmHg 45%
04:00 +28°C° 0 mm 2 mps 757 mmHg 43%
05:00 +29°C° 0 mm 2 mps 757 mmHg 40%
06:00 +30°C° 0 mm 2 mps 757 mmHg 37%
07:00 +32°C° 0 mm 2 mps 757 mmHg 32%
08:00 +35°C° 0 mm 2 mps 757 mmHg 27%
09:00 +37°C° 0 mm 2 mps 757 mmHg 22%
10:00 +38°C° 0 mm 2 mps 757 mmHg 20%
11:00 +39°C° 0 mm 2 mps 757 mmHg 18%
12:00 +40°C° 0 mm 2 mps 757 mmHg 16%
13:00 +41°C° 0 mm 2 mps 756 mmHg 15%
14:00 +41°C° 0 mm 2 mps 756 mmHg 14%
15:00 +42°C° 0 mm 2 mps 755 mmHg 13%
16:00 +41°C° 0 mm 2 mps 755 mmHg 14%
17:00 +40°C° 0 mm 2 mps 755 mmHg 14%
18:00 +40°C° 0 mm 1 mps 755 mmHg 15%
19:00 +38°C° 0 mm 2 mps 755 mmHg 18%
20:00 +36°C° 0 mm 2 mps 755 mmHg 21%
21:00 +32°C° 0 mm 2 mps 756 mmHg 24%
22:00 +32°C° 0 mm 2 mps 756 mmHg 25%
23:00 +31°C° 0 mm 1 mps 755 mmHg 26%

Tomorrow, 3 August, Tuesday

Time Temperature Precipitation Wind Pressure Humidity
00:00 +31°C° 0 mm 1 mps 755 mmHg 27%
01:00 +30°C° 0 mm 1 mps 755 mmHg 28%
02:00 +30°C° 0 mm 1 mps 756 mmHg 30%
03:00 +29°C° 0 mm 2 mps 756 mmHg 31%
04:00 +30°C° 0 mm 2 mps 756 mmHg 29%
05:00 +31°C° 0 mm 2 mps 756 mmHg 28%
06:00 +33°C° 0 mm 3 mps 756 mmHg 26%
07:00 +36°C° 0 mm 3 mps 756 mmHg 23%
08:00 +38°C° 0 mm 3 mps 756 mmHg 20%
09:00 +41°C° 0 mm 4 mps 756 mmHg 17%
10:00 +42°C° 0 mm 4 mps 756 mmHg 15%
11:00 +43°C° 0 mm 5 mps 756 mmHg 13%
12:00 +45°C° 0 mm 5 mps 755 mmHg 12%
13:00 +45°C° 0 mm 5 mps 755 mmHg 11%
14:00 +45°C° 0 mm 5 mps 755 mmHg 11%
15:00 +45°C° 0 mm 4 mps 754 mmHg 10%
16:00 +43°C° 0 mm 5 mps 754 mmHg 11%
17:00 +42°C° 0 mm 5 mps 754 mmHg 13%
18:00 +41°C° 0 mm 6 mps 755 mmHg 14%
19:00 +39°C° 0 mm 5 mps 755 mmHg 17%
20:00 +36°C° 0 mm 3 mps 755 mmHg 19%
21:00 +34°C° 0 mm 2 mps 755 mmHg 21%
22:00 +32°C° 0 mm 2 mps 755 mmHg 23%
23:00 +31°C° 0 mm 1 mps 755 mmHg 24%

Day after tomorrow, 4 August, Wednesday

Time Temperature Precipitation Wind Pressure Humidity
00:00 +30°C° 0 mm 1 mps 755 mmHg 26%
01:00 +30°C° 0 mm 1 mps 755 mmHg 28%
02:00 +29°C° 0 mm 2 mps 755 mmHg 30%
03:00 +28°C° 0 mm 2 mps 755 mmHg 32%
04:00 +30°C° 0 mm 2 mps 755 mmHg 29%
05:00 +31°C° 0 mm 2 mps 755 mmHg 27%
06:00 +32°C° 0 mm 2 mps 755 mmHg 25%
07:00 +36°C° 0 mm 3 mps 755 mmHg 21%
08:00 +38°C° 0 mm 4 mps 755 mmHg 18%
09:00 +42°C° 0 mm 5 mps 755 mmHg 14%
10:00 +42°C° 0 mm 5 mps 755 mmHg 13%
11:00 +43°C° 0 mm 5 mps 754 mmHg 12%
12:00 +45°C° 0 mm 5 mps 754 mmHg 11%
13:00 +45°C° 0 mm 5 mps 754 mmHg 11%
14:00 +46°C° 0 mm 5 mps 753 mmHg 10%
15:00 +46°C° 0 mm 5 mps 753 mmHg 9%
16:00 +44°C° 0 mm 6 mps 753 mmHg 12%
17:00 +42°C° 0 mm 6 mps 753 mmHg 14%
18:00 +40°C° 0 mm 6 mps 754 mmHg 17%
19:00 +38°C° 0 mm 6 mps 754 mmHg 21%
20:00 +35°C° 0 mm 5 mps 754 mmHg 24%
21:00 +33°C° 0 mm 4 mps 755 mmHg 28%
22:00 +32°C° 0 mm 4 mps 755 mmHg 30%
23:00 +30°C° 0 mm 4 mps 755 mmHg 33%

5 August, Thursday

Time Temperature Precipitation Wind Pressure Humidity
00:00 +29°C° 0 mm 3 mps 755 mmHg 35%
01:00 +29°C° 0 mm 4 mps 755 mmHg 38%
02:00 +28°C° 0 mm 4 mps 755 mmHg 41%
03:00 +27°C° 0 mm 4 mps 755 mmHg 44%
04:00 +27°C° 0 mm 4 mps 755 mmHg 47%
05:00 +28°C° 0 mm 5 mps 755 mmHg 49%
06:00 +28°C° 0 mm 6 mps 756 mmHg 52%
07:00 +29°C° 0 mm 5 mps 756 mmHg 46%
08:00 +32°C° 0 mm 5 mps 756 mmHg 41%
09:00 +33°C° 0 mm 5 mps 756 mmHg 35%
10:00 +34°C° 0 mm 4 mps 756 mmHg 34%
11:00 +35°C° 0 mm 4 mps 755 mmHg 32%
12:00 +35°C° 0 mm 3 mps 755 mmHg 30%
13:00 +35°C° 0 mm 3 mps 755 mmHg 29%
14:00 +36°C° 0 mm 4 mps 755 mmHg 29%
15:00 +36°C° 0 mm 4 mps 755 mmHg 28%
16:00 +36°C° 0 mm 4 mps 755 mmHg 28%
17:00 +35°C° 0 mm 4 mps 755 mmHg 29%
18:00 +35°C° 0 mm 4 mps 755 mmHg 29%
19:00 +33°C° 0 mm 4 mps 755 mmHg 31%
20:00 +32°C° 0 mm 4 mps 755 mmHg 33%
21:00 +29°C° 0 mm 4 mps 755 mmHg 35%
22:00 +28°C° 0 mm 4 mps 755 mmHg 38%
23:00 +27°C° 0 mm 4 mps 756 mmHg 41%

6 August, Friday

Time Temperature Precipitation Wind Pressure Humidity
00:00 +25°C° 0 mm 4 mps 756 mmHg 44%
01:00 +23°C° 0 mm 4 mps 756 mmHg 48%
02:00 +24°C° 0 mm 3 mps 756 mmHg 51%
03:00 +22°C° 0 mm 3 mps 756 mmHg 55%
04:00 +22°C° 0 mm 3 mps 756 mmHg 54%
05:00 +23°C° 0 mm 4 mps 756 mmHg 54%
06:00 +25°C° 0 mm 4 mps 756 mmHg 53%
07:00 +27°C° 0 mm 4 mps 756 mmHg 47%
08:00 +29°C° 0 mm 4 mps 756 mmHg 42%
09:00 +32°C° 0 mm 5 mps 756 mmHg 36%
10:00 +33°C° 0 mm 5 mps 756 mmHg 33%
11:00 +34°C° 0 mm 5 mps 756 mmHg 29%
12:00 +35°C° 0 mm 5 mps 756 mmHg 25%
13:00 +35°C° 0 mm 5 mps 756 mmHg 26%
14:00 +34°C° 0 mm 6 mps 756 mmHg 27%
15:00 +34°C° 0 mm 7 mps 756 mmHg 28%
16:00 +33°C° 0 mm 7 mps 756 mmHg 29%
17:00 +33°C° 0 mm 6 mps 756 mmHg 30%
18:00 +32°C° 0 mm 6 mps 756 mmHg 31%
19:00 +29°C° 0 mm 6 mps 756 mmHg 36%
20:00 +27°C° 0 mm 5 mps 757 mmHg 41%
21:00 +25°C° 0 mm 5 mps 757 mmHg 45%
22:00 +25°C° 0 mm 5 mps 757 mmHg 47%
23:00 +23°C° 0 mm 5 mps 758 mmHg 50%

7 August, Saturday

Time Temperature Precipitation Wind Pressure Humidity
00:00 +22°C° 0 mm 5 mps 758 mmHg 52%
01:00 +21°C° 0 mm 4 mps 758 mmHg 51%
02:00 +21°C° 0 mm 4 mps 758 mmHg 51%
03:00 +20°C° 0 mm 4 mps 758 mmHg 50%
04:00 +20°C° 0 mm 4 mps 759 mmHg 46%
05:00 +21°C° 0 mm 4 mps 759 mmHg 43%
06:00 +22°C° 0 mm 4 mps 760 mmHg 39%
07:00 +25°C° 0 mm 4 mps 760 mmHg 35%
08:00 +26°C° 0 mm 4 mps 760 mmHg 30%
09:00 +28°C° 0 mm 5 mps 760 mmHg 26%
10:00 +29°C° 0 mm 5 mps 760 mmHg 25%
11:00 +30°C° 0 mm 5 mps 760 mmHg 23%
12:00 +32°C° 0 mm 5 mps 760 mmHg 22%
13:00 +32°C° 0 mm 5 mps 760 mmHg 21%
14:00 +32°C° 0 mm 6 mps 760 mmHg 20%
15:00 +33°C° 0 mm 6 mps 760 mmHg 19%
16:00 +32°C° 0 mm 6 mps 760 mmHg 19%
17:00 +30°C° 0 mm 6 mps 760 mmHg 19%
18:00 +29°C° 0 mm 6 mps 760 mmHg 19%
19:00 +27°C° 0 mm 5 mps 760 mmHg 22%
20:00 +25°C° 0 mm 5 mps 761 mmHg 24%
21:00 +22°C° 0 mm 5 mps 761 mmHg 27%
22:00 +21°C° 0 mm 4 mps 762 mmHg 29%
23:00 +20°C° 0 mm 4 mps 762 mmHg 31%
Show more

We Need Your Consent

Meteoprog and our Service Providers may store and access personal data such as cookies, device identifiers or other similar technologies on your device and process such data to personalise content and ads, as well as provide social media features and to analyse the traffic.

  • Store and/or access information on your device

    Cookies, device identifiers or other information can be stored or accessed on your device for the purposes indicated above.

  • Personalised ads and content, ad and content measurement, audience insights, and products development

    Ads and content can be personalised based on a profile. More data can be added to better personalise ads and content. Ad and content performance can be measured. Insights about the audience who saw the ads and content can be derived. Such data can be used to develop or improve user’s experience, systems and software.

By clicking ‘I Agree’ you will allow the use of indicated cookies, device identifiers, web beacons or other similar technologies. Your settings can be changed in the browser on your device.

For certain purposes, legitimate interests may be relied on, rather than consent. You can read more about this in our Privacy and Cookie Policy.